9HGIG GVAC-TBPB

Flight info

Callsign 9HGIG
Flight time 5h 21m
Altitude 40000
Route GADUN1A LININ DCT 19N030W/M085F400 DCT VEPOP DCT IPSIN/N0483F400 DCT ROHPL DCT OXODE DCT NEZBT DCT LEARP DCT KLUKE DCT SALAB DCT BGI
Aircraft A346/H-SDE2E3FGHIJ3J4J5M1RWXY/LB1D1

Departure

Time 2026-04-29 08:45
Airport Amílcar Cabral International Airport (GVAC)

Arrival

Time 2026-04-29 14:06
Airport Grantley Adams International Airport (TBPB)
Time Latitude Longitude Altitude Speed Heading
2026-04-29 08:45 16.79535 -22.95009 3126 ft 203 kts 359°
2026-04-29 08:45 16.81010 -22.95031 3605 ft 220 kts 357°
2026-04-29 08:45 16.82614 -22.95056 4034 ft 241 kts 356°
2026-04-29 08:46 16.84342 -22.95285 4547 ft 257 kts 338°
2026-04-29 08:46 16.85882 -22.96268 5173 ft 264 kts 311°
2026-04-29 08:46 16.86837 -22.97873 6016 ft 260 kts 285°
2026-04-29 08:46 16.87047 -22.99696 6913 ft 256 kts 269°
2026-04-29 08:47 16.87043 -23.01571 7531 ft 258 kts 268°
2026-04-29 08:47 16.87034 -23.03456 7889 ft 260 kts 267°
2026-04-29 08:47 16.87019 -23.05354 7992 ft 261 kts 267°
2026-04-29 08:47 16.87005 -23.07254 7999 ft 260 kts 267°
2026-04-29 08:48 16.86992 -23.09127 8004 ft 260 kts 267°
2026-04-29 08:48 16.86978 -23.11018 8011 ft 260 kts 267°
2026-04-29 08:48 16.87217 -23.12902 7985 ft 266 kts 288°
2026-04-29 08:48 16.88259 -23.14537 8058 ft 281 kts 313°
2026-04-29 08:49 16.89997 -23.15657 8529 ft 303 kts 328°
2026-04-29 08:49 16.91861 -23.16607 9699 ft 297 kts 328°
2026-04-29 08:49 16.93716 -23.17562 10701 ft 299 kts 328°
2026-04-29 08:49 16.95629 -23.18559 11306 ft 314 kts 329°
2026-04-29 08:50 16.97613 -23.19592 11817 ft 331 kts 329°
2026-04-29 08:50 16.99738 -23.20691 12301 ft 349 kts 330°
2026-04-29 08:50 17.01978 -23.21847 12765 ft 367 kts 330°
2026-04-29 08:50 17.04326 -23.23056 13209 ft 384 kts 331°
2026-04-29 08:51 17.06760 -23.24307 13867 ft 392 kts 332°
2026-04-29 08:51 17.09228 -23.25574 14615 ft 396 kts 332°
2026-04-29 08:51 17.11684 -23.26833 15343 ft 400 kts 332°
2026-04-29 08:51 17.14202 -23.28126 16067 ft 404 kts 331°
2026-04-29 08:52 17.16735 -23.29431 16770 ft 408 kts 331°
2026-04-29 08:52 17.19306 -23.30758 17481 ft 413 kts 331°
2026-04-29 08:52 17.21872 -23.32082 18178 ft 417 kts 331°
2026-04-29 08:52 17.24486 -23.33452 18783 ft 420 kts 328°
2026-04-29 08:53 17.26909 -23.35168 19392 ft 420 kts 318°
2026-04-29 08:53 17.28995 -23.37301 20061 ft 418 kts 308°
2026-04-29 08:53 17.30703 -23.39725 20735 ft 418 kts 302°
2026-04-29 08:53 17.32315 -23.42267 21403 ft 419 kts 301°
2026-04-29 08:54 17.33925 -23.44839 22072 ft 421 kts 301°
2026-04-29 08:54 17.34992 -23.46548 22523 ft 422 kts 301°
2026-04-29 08:54 17.36605 -23.49132 23190 ft 424 kts 301°
2026-04-29 08:54 17.38762 -23.52585 23942 ft 427 kts 301°
2026-04-29 08:55 17.40398 -23.55202 24445 ft 430 kts 301°
2026-04-29 08:55 17.41485 -23.56940 24769 ft 432 kts 301°
2026-04-29 08:55 17.43144 -23.59593 25284 ft 434 kts 301°
2026-04-29 08:55 17.45347 -23.63118 25936 ft 438 kts 301°
2026-04-29 08:56 17.46480 -23.64929 26263 ft 440 kts 301°
2026-04-29 08:56 17.48165 -23.67625 26747 ft 443 kts 301°
2026-04-29 08:56 17.49839 -23.70304 27219 ft 446 kts 301°
2026-04-29 08:56 17.51547 -23.73039 27701 ft 449 kts 301°
2026-04-29 08:57 17.53265 -23.75791 28150 ft 451 kts 301°
2026-04-29 08:57 17.54997 -23.78568 28609 ft 455 kts 301°
2026-04-29 08:57 17.56717 -23.81325 29062 ft 458 kts 301°
2026-04-29 08:57 17.58465 -23.84127 29522 ft 460 kts 301°
2026-04-29 08:58 17.60229 -23.86955 30185 ft 458 kts 300°
2026-04-29 08:58 17.61969 -23.89742 30858 ft 454 kts 300°
2026-04-29 08:58 17.63691 -23.92505 31492 ft 451 kts 300°
2026-04-29 08:58 17.65390 -23.95233 32083 ft 449 kts 300°
2026-04-29 08:59 17.67097 -23.97977 32656 ft 448 kts 300°
2026-04-29 08:59 17.68799 -24.00713 33254 ft 446 kts 300°
2026-04-29 08:59 17.70499 -24.03448 33852 ft 445 kts 300°
2026-04-29 08:59 17.72191 -24.06171 34390 ft 443 kts 300°
2026-04-29 09:00 17.73858 -24.08854 34930 ft 441 kts 300°
2026-04-29 09:00 17.75533 -24.11551 35502 ft 439 kts 300°
2026-04-29 09:00 17.77202 -24.14237 36053 ft 436 kts 299°
2026-04-29 09:00 17.78861 -24.16909 36593 ft 435 kts 299°
2026-04-29 09:01 17.80509 -24.19566 37122 ft 433 kts 299°
2026-04-29 09:01 17.82153 -24.22218 37639 ft 431 kts 299°
2026-04-29 09:01 17.83765 -24.24820 38123 ft 429 kts 299°
2026-04-29 09:01 17.85396 -24.27453 38601 ft 428 kts 299°
2026-04-29 09:02 17.87027 -24.30085 38943 ft 428 kts 298°
2026-04-29 09:02 17.88653 -24.32715 39222 ft 429 kts 298°
2026-04-29 09:02 17.90286 -24.35356 39482 ft 430 kts 298°
2026-04-29 09:02 17.91920 -24.38000 39724 ft 431 kts 298°
2026-04-29 09:03 17.93544 -24.40628 39952 ft 433 kts 298°
2026-04-29 09:03 17.96841 -24.45966 40022 ft 434 kts 298°
2026-04-29 09:04 18.00109 -24.51259 40029 ft 434 kts 298°
2026-04-29 09:04 18.03408 -24.56606 40031 ft 434 kts 298°
2026-04-29 09:05 18.06693 -24.61936 40031 ft 434 kts 298°
2026-04-29 09:05 18.09949 -24.67287 40034 ft 433 kts 296°
2026-04-29 09:06 18.12745 -24.72835 40039 ft 428 kts 291°
2026-04-29 09:06 18.14971 -24.78635 40035 ft 425 kts 286°
2026-04-29 09:07 18.16604 -24.84601 40034 ft 423 kts 281°
2026-04-29 09:07 18.17743 -24.90642 40035 ft 422 kts 278°
2026-04-29 09:08 18.18827 -24.96743 40036 ft 423 kts 278°
2026-04-29 09:08 18.19894 -25.02796 40034 ft 423 kts 278°
2026-04-29 09:09 18.20965 -25.08912 40035 ft 423 kts 278°
2026-04-29 09:09 18.22033 -25.15024 40037 ft 423 kts 278°
2026-04-29 09:10 18.23093 -25.21112 40032 ft 423 kts 278°
2026-04-29 09:10 18.24154 -25.27215 40034 ft 423 kts 278°
2026-04-29 09:11 18.25213 -25.33321 40035 ft 423 kts 278°
2026-04-29 09:11 18.26266 -25.39402 40034 ft 423 kts 278°
2026-04-29 09:12 18.27324 -25.45523 40037 ft 423 kts 278°
2026-04-29 09:12 18.28373 -25.51607 40040 ft 423 kts 278°
2026-04-29 09:13 18.29426 -25.57729 40034 ft 423 kts 278°
2026-04-29 09:13 18.30469 -25.63800 40046 ft 421 kts 278°
2026-04-29 09:14 18.31513 -25.69892 40036 ft 421 kts 278°
2026-04-29 09:14 18.32554 -25.75977 40037 ft 421 kts 278°
2026-04-29 09:15 18.33589 -25.82035 40040 ft 421 kts 278°
2026-04-29 09:15 18.34625 -25.88117 40040 ft 421 kts 278°
2026-04-29 09:16 18.35654 -25.94167 40040 ft 421 kts 278°
2026-04-29 09:16 18.36689 -26.00267 40038 ft 422 kts 278°
2026-04-29 09:17 18.37722 -26.06363 40039 ft 422 kts 278°
2026-04-29 09:17 18.38746 -26.12420 40039 ft 422 kts 278°
2026-04-29 09:18 18.39776 -26.18524 40038 ft 422 kts 278°
2026-04-29 09:18 18.40798 -26.24595 40037 ft 422 kts 278°
2026-04-29 09:19 18.41825 -26.30708 40039 ft 422 kts 278°
2026-04-29 09:19 18.42850 -26.36816 40039 ft 422 kts 278°
2026-04-29 09:20 18.43868 -26.42898 40039 ft 422 kts 278°
2026-04-29 09:20 18.44890 -26.49018 40040 ft 422 kts 278°
2026-04-29 09:21 18.45908 -26.55126 40040 ft 422 kts 278°
2026-04-29 09:21 18.46917 -26.61195 40051 ft 420 kts 278°
2026-04-29 09:22 18.47925 -26.67264 40043 ft 419 kts 278°
2026-04-29 09:22 18.48923 -26.73290 40042 ft 418 kts 278°
2026-04-29 09:23 18.49925 -26.79349 40044 ft 418 kts 278°
2026-04-29 09:23 18.50924 -26.85402 40043 ft 418 kts 278°
2026-04-29 09:24 18.51920 -26.91444 40039 ft 419 kts 278°
2026-04-29 09:24 18.52918 -26.97521 40042 ft 420 kts 278°
2026-04-29 09:25 18.53911 -27.03574 40045 ft 420 kts 278°
2026-04-29 09:25 18.54901 -27.09622 40045 ft 420 kts 278°
2026-04-29 09:26 18.55893 -27.15696 40047 ft 420 kts 278°
2026-04-29 09:26 18.56885 -27.21782 40045 ft 421 kts 278°
2026-04-29 09:27 18.57876 -27.27880 40044 ft 421 kts 278°
2026-04-29 09:27 18.58860 -27.33942 40045 ft 421 kts 278°
2026-04-29 09:28 18.59851 -27.40057 40047 ft 421 kts 278°
2026-04-29 09:28 18.60836 -27.46154 40045 ft 421 kts 278°
2026-04-29 09:29 18.61815 -27.52229 40046 ft 421 kts 278°
2026-04-29 09:29 18.63282 -27.61347 40051 ft 418 kts 278°
2026-04-29 09:30 18.64248 -27.67365 40048 ft 417 kts 278°
2026-04-29 09:30 18.65218 -27.73423 40051 ft 417 kts 278°
2026-04-29 09:31 18.66184 -27.79479 40048 ft 417 kts 278°
2026-04-29 09:31 18.67143 -27.85489 40048 ft 417 kts 278°
2026-04-29 09:32 18.68106 -27.91543 40048 ft 417 kts 278°
2026-04-29 09:32 18.69068 -27.97605 40048 ft 417 kts 278°
2026-04-29 09:33 18.70022 -28.03627 40050 ft 417 kts 278°
2026-04-29 09:33 18.70980 -28.09692 40044 ft 418 kts 278°
2026-04-29 09:34 18.71931 -28.15719 40047 ft 418 kts 278°
2026-04-29 09:34 18.72885 -28.21784 40048 ft 418 kts 278°
2026-04-29 09:35 18.73839 -28.27854 40048 ft 418 kts 278°
2026-04-29 09:35 18.74784 -28.33886 40048 ft 418 kts 278°
2026-04-29 09:36 18.75732 -28.39949 40050 ft 418 kts 278°
2026-04-29 09:36 18.76678 -28.46015 40051 ft 418 kts 278°
2026-04-29 09:37 18.77623 -28.52078 40061 ft 416 kts 278°
2026-04-29 09:37 18.78553 -28.58065 40053 ft 415 kts 278°
2026-04-29 09:38 18.79272 -28.62702 40048 ft 415 kts 278°
2026-04-29 09:38 18.80203 -28.68725 40043 ft 415 kts 278°
2026-04-29 09:39 18.81129 -28.74719 40049 ft 415 kts 278°
2026-04-29 09:39 18.82058 -28.80751 40050 ft 415 kts 278°
2026-04-29 09:40 18.82985 -28.86781 40054 ft 415 kts 278°
2026-04-29 09:40 18.83906 -28.92783 40053 ft 415 kts 278°
2026-04-29 09:41 18.84829 -28.98820 40049 ft 416 kts 278°
2026-04-29 09:41 18.85748 -29.04838 40052 ft 416 kts 278°
2026-04-29 09:42 18.86669 -29.10876 40053 ft 416 kts 278°
2026-04-29 09:42 18.87587 -29.16921 40053 ft 416 kts 278°
2026-04-29 09:43 18.88503 -29.22960 40056 ft 416 kts 278°
2026-04-29 09:43 18.89411 -29.28965 40056 ft 416 kts 278°
2026-04-29 09:44 18.90326 -29.35025 40052 ft 416 kts 278°
2026-04-29 09:44 18.91085 -29.40057 40053 ft 416 kts 278°
2026-04-29 09:45 18.91996 -29.46116 40053 ft 416 kts 278°
2026-04-29 09:45 18.92898 -29.52129 40053 ft 416 kts 278°
2026-04-29 09:46 18.93804 -29.58183 40054 ft 417 kts 278°
2026-04-29 09:46 18.94714 -29.64269 40056 ft 417 kts 278°
2026-04-29 09:47 18.95613 -29.70304 40052 ft 417 kts 278°
2026-04-29 09:47 18.96514 -29.76367 40053 ft 417 kts 278°
2026-04-29 09:48 18.97415 -29.82441 40053 ft 417 kts 278°
2026-04-29 09:48 18.98311 -29.88496 40057 ft 418 kts 278°
2026-04-29 09:49 18.99204 -29.94547 40056 ft 418 kts 278°
2026-04-29 09:49 19.00070 -30.00633 40055 ft 417 kts 276°
2026-04-29 09:50 19.00766 -30.06750 40061 ft 418 kts 276°
2026-04-29 09:50 19.01453 -30.12836 40059 ft 418 kts 276°
2026-04-29 09:51 19.02140 -30.18961 40058 ft 418 kts 276°
2026-04-29 09:51 19.02820 -30.25043 40059 ft 418 kts 276°
2026-04-29 09:52 19.03501 -30.31160 40059 ft 418 kts 276°
2026-04-29 09:52 19.04182 -30.37294 40068 ft 417 kts 276°
2026-04-29 09:53 19.04853 -30.43365 40063 ft 416 kts 276°
2026-04-29 09:53 19.05527 -30.49471 40062 ft 416 kts 276°
2026-04-29 09:54 19.06196 -30.55546 40056 ft 416 kts 276°
2026-04-29 09:54 19.06861 -30.61609 40056 ft 416 kts 276°
2026-04-29 09:55 19.07525 -30.67685 40061 ft 416 kts 276°
2026-04-29 09:55 19.08191 -30.73798 40059 ft 417 kts 276°
2026-04-29 09:56 19.08852 -30.79875 40060 ft 417 kts 276°
2026-04-29 09:56 19.09514 -30.85989 40061 ft 417 kts 276°
2026-04-29 09:57 19.10170 -30.92063 40059 ft 417 kts 276°
2026-04-29 09:57 19.10831 -30.98198 40049 ft 417 kts 276°
2026-04-29 09:58 19.11484 -31.04287 40059 ft 418 kts 276°
2026-04-29 09:58 19.12139 -31.10408 40061 ft 418 kts 276°
2026-04-29 09:59 19.12793 -31.16544 40061 ft 418 kts 276°
2026-04-29 09:59 19.13441 -31.22642 40061 ft 418 kts 276°
2026-04-29 10:00 19.14092 -31.28785 40063 ft 418 kts 276°
2026-04-29 10:00 19.14736 -31.34880 40064 ft 418 kts 276°
2026-04-29 10:01 19.15378 -31.40998 40071 ft 416 kts 276°
2026-04-29 10:01 19.16020 -31.47110 40063 ft 416 kts 276°
2026-04-29 10:02 19.16655 -31.53175 40052 ft 416 kts 276°
2026-04-29 10:02 19.17292 -31.59287 40060 ft 417 kts 276°
2026-04-29 10:03 19.17924 -31.65364 40061 ft 417 kts 276°
2026-04-29 10:03 19.18557 -31.71479 40061 ft 417 kts 276°
2026-04-29 10:04 19.19189 -31.77593 40062 ft 417 kts 276°
2026-04-29 10:04 19.19816 -31.83685 40059 ft 417 kts 276°
2026-04-29 10:05 19.20443 -31.89807 40064 ft 418 kts 276°
2026-04-29 10:05 19.21070 -31.95939 40064 ft 418 kts 276°
2026-04-29 10:06 19.21691 -32.02033 40061 ft 417 kts 276°
2026-04-29 10:06 19.22313 -32.08158 40055 ft 418 kts 276°
2026-04-29 10:07 19.22935 -32.14303 40060 ft 418 kts 276°
2026-04-29 10:07 19.23549 -32.20394 40064 ft 418 kts 276°
2026-04-29 10:08 19.24167 -32.26544 40064 ft 418 kts 276°
2026-04-29 10:08 19.24779 -32.32656 40064 ft 418 kts 276°
2026-04-29 10:09 19.25391 -32.38793 40069 ft 417 kts 276°
2026-04-29 10:09 19.25997 -32.44875 40065 ft 417 kts 276°
2026-04-29 10:10 19.26605 -32.51006 40066 ft 417 kts 276°
2026-04-29 10:10 19.27211 -32.57134 40067 ft 417 kts 276°
2026-04-29 10:11 19.27810 -32.63213 40061 ft 417 kts 276°
2026-04-29 10:11 19.28412 -32.69346 40064 ft 417 kts 276°
2026-04-29 10:12 19.29011 -32.75477 40067 ft 417 kts 276°
2026-04-29 10:12 19.29609 -32.81609 40067 ft 417 kts 276°
2026-04-29 10:13 19.30201 -32.87705 40067 ft 417 kts 276°
2026-04-29 10:13 19.30797 -32.93857 40065 ft 418 kts 276°
2026-04-29 10:14 19.31389 -32.99999 40069 ft 418 kts 276°
2026-04-29 10:14 19.31975 -33.06104 40069 ft 418 kts 276°
2026-04-29 10:15 19.32565 -33.12266 40067 ft 418 kts 276°
2026-04-29 10:15 19.33151 -33.18408 40063 ft 418 kts 276°
2026-04-29 10:16 19.33633 -33.23481 40066 ft 419 kts 276°
2026-04-29 10:16 19.34316 -33.30684 40080 ft 419 kts 276°
2026-04-29 10:17 19.34891 -33.36789 40069 ft 417 kts 276°
2026-04-29 10:17 19.35468 -33.42929 40066 ft 417 kts 276°
2026-04-29 10:18 19.36039 -33.49028 40069 ft 417 kts 276°
2026-04-29 10:18 19.36597 -33.55162 40065 ft 417 kts 275°
2026-04-29 10:19 19.36811 -33.61318 40070 ft 417 kts 272°
2026-04-29 10:19 19.36906 -33.67498 40070 ft 418 kts 271°
2026-04-29 10:20 19.36995 -33.73645 40069 ft 419 kts 271°
2026-04-29 10:20 19.37079 -33.79837 40070 ft 419 kts 271°
2026-04-29 10:21 19.37159 -33.85989 40070 ft 419 kts 271°
2026-04-29 10:21 19.37238 -33.92189 40070 ft 419 kts 271°
2026-04-29 10:22 19.37313 -33.98339 40066 ft 419 kts 271°
2026-04-29 10:22 19.37387 -34.04524 40067 ft 419 kts 271°
2026-04-29 10:23 19.37458 -34.10680 40066 ft 419 kts 271°
2026-04-29 10:23 19.37528 -34.16872 40067 ft 419 kts 271°
2026-04-29 10:24 19.37595 -34.23061 40064 ft 419 kts 271°
2026-04-29 10:24 19.37661 -34.29226 40066 ft 419 kts 271°
2026-04-29 10:25 19.37724 -34.35424 40067 ft 419 kts 271°
2026-04-29 10:25 19.37785 -34.41586 40067 ft 419 kts 271°
2026-04-29 10:26 19.37844 -34.47798 40078 ft 419 kts 271°
2026-04-29 10:26 19.37900 -34.53956 40069 ft 418 kts 271°
2026-04-29 10:27 19.37982 -34.63198 40067 ft 418 kts 271°
2026-04-29 10:28 19.38034 -34.69375 40066 ft 418 kts 271°
2026-04-29 10:28 19.38084 -34.75554 40063 ft 418 kts 271°
2026-04-29 10:29 19.38131 -34.81734 40064 ft 418 kts 271°
2026-04-29 10:29 19.38176 -34.87872 40066 ft 418 kts 271°
2026-04-29 10:30 19.38220 -34.94064 40067 ft 418 kts 271°
2026-04-29 10:30 19.38261 -35.00239 40061 ft 418 kts 271°
2026-04-29 10:31 19.38300 -35.06395 40066 ft 419 kts 271°
2026-04-29 10:31 19.38338 -35.12589 40067 ft 419 kts 271°
2026-04-29 10:32 19.38372 -35.18754 40063 ft 419 kts 271°
2026-04-29 10:32 19.38405 -35.24912 40063 ft 419 kts 271°
2026-04-29 10:33 19.38436 -35.31103 40066 ft 419 kts 271°
2026-04-29 10:33 19.38464 -35.37271 40067 ft 419 kts 271°
2026-04-29 10:34 19.38491 -35.43461 40067 ft 419 kts 271°
2026-04-29 10:34 19.38512 -35.48609 40064 ft 419 kts 271°
2026-04-29 10:35 19.38535 -35.54806 40064 ft 419 kts 271°
2026-04-29 10:35 19.38556 -35.60972 40066 ft 420 kts 271°
2026-04-29 10:36 19.38574 -35.67175 40063 ft 420 kts 271°
2026-04-29 10:36 19.38590 -35.73370 40072 ft 419 kts 271°
2026-04-29 10:37 19.38605 -35.79527 40062 ft 419 kts 271°
2026-04-29 10:37 19.38618 -35.85730 40066 ft 419 kts 271°
2026-04-29 10:38 19.38628 -35.91925 40067 ft 419 kts 271°
2026-04-29 10:38 19.38636 -35.98081 40067 ft 419 kts 271°
2026-04-29 10:39 19.38643 -36.04282 40060 ft 419 kts 271°
2026-04-29 10:39 19.38647 -36.10436 40063 ft 419 kts 271°
2026-04-29 10:40 19.38649 -36.16638 40067 ft 419 kts 271°
2026-04-29 10:40 19.38649 -36.22834 40067 ft 420 kts 271°
2026-04-29 10:41 19.38643 -36.29028 40060 ft 422 kts 271°
2026-04-29 10:41 19.38640 -36.35248 40063 ft 423 kts 271°
2026-04-29 10:42 19.38635 -36.41466 40061 ft 423 kts 271°
2026-04-29 10:42 19.38627 -36.47709 40066 ft 423 kts 271°
2026-04-29 10:43 19.38616 -36.53964 40062 ft 423 kts 271°
2026-04-29 10:43 19.38603 -36.60210 40067 ft 423 kts 271°
2026-04-29 10:44 19.38589 -36.66431 40066 ft 423 kts 271°
2026-04-29 10:44 19.38571 -36.72692 40066 ft 423 kts 271°
2026-04-29 10:45 19.38553 -36.78905 40064 ft 424 kts 271°
2026-04-29 10:45 19.38531 -36.85179 40062 ft 424 kts 271°
2026-04-29 10:46 19.38507 -36.91398 40073 ft 423 kts 271°
2026-04-29 10:46 19.38480 -36.97644 40063 ft 423 kts 271°
2026-04-29 10:47 19.38453 -37.03905 40066 ft 423 kts 271°
2026-04-29 10:47 19.38424 -37.10131 40063 ft 423 kts 271°
2026-04-29 10:48 19.38392 -37.16380 40062 ft 423 kts 271°
2026-04-29 10:48 19.38358 -37.22609 40066 ft 423 kts 271°
2026-04-29 10:49 19.38322 -37.28868 40059 ft 424 kts 271°
2026-04-29 10:49 19.38283 -37.35091 40066 ft 424 kts 271°
2026-04-29 10:50 19.38243 -37.41347 40067 ft 424 kts 271°
2026-04-29 10:50 19.38201 -37.47580 40065 ft 424 kts 271°
2026-04-29 10:51 19.38156 -37.53849 40062 ft 424 kts 271°
2026-04-29 10:51 19.38108 -37.60125 40067 ft 425 kts 271°
2026-04-29 10:52 19.38059 -37.66397 40063 ft 425 kts 271°
2026-04-29 10:52 19.38008 -37.72638 40054 ft 425 kts 271°
2026-04-29 10:53 19.37955 -37.78911 40061 ft 425 kts 271°
2026-04-29 10:53 19.37898 -37.85200 40061 ft 425 kts 271°
2026-04-29 10:54 19.37840 -37.91443 40059 ft 425 kts 271°
2026-04-29 10:54 19.37780 -37.97725 40063 ft 425 kts 271°
2026-04-29 10:55 19.37718 -38.03974 40057 ft 426 kts 271°
2026-04-29 10:55 19.37651 -38.10261 40063 ft 424 kts 271°
2026-04-29 10:56 19.37585 -38.16529 40064 ft 424 kts 271°
2026-04-29 10:56 19.37518 -38.22749 40063 ft 424 kts 271°
2026-04-29 10:57 19.37447 -38.29020 40066 ft 425 kts 271°
2026-04-29 10:57 19.37373 -38.35294 40067 ft 424 kts 271°
2026-04-29 10:58 19.37298 -38.41533 40069 ft 424 kts 271°
2026-04-29 10:58 19.37219 -38.47817 40064 ft 425 kts 270°
2026-04-29 10:59 19.37131 -38.54057 40068 ft 425 kts 270°
2026-04-29 10:59 19.36677 -38.60329 40065 ft 426 kts 265°
2026-04-29 11:00 19.35683 -38.66519 40065 ft 428 kts 261°
2026-04-29 11:00 19.34485 -38.72720 40066 ft 429 kts 261°
2026-04-29 11:01 19.33277 -38.78918 40069 ft 429 kts 261°
2026-04-29 11:01 19.32068 -38.85084 40068 ft 429 kts 261°
2026-04-29 11:02 19.30848 -38.91288 40067 ft 429 kts 261°
2026-04-29 11:02 19.29626 -38.97488 40066 ft 429 kts 261°
2026-04-29 11:03 19.28410 -39.03641 40066 ft 429 kts 261°
2026-04-29 11:03 19.27181 -39.09852 40068 ft 429 kts 261°
2026-04-29 11:04 19.25957 -39.16023 40065 ft 429 kts 261°
2026-04-29 11:04 19.24725 -39.22224 40065 ft 429 kts 261°
2026-04-29 11:05 19.23497 -39.28392 40065 ft 429 kts 261°
2026-04-29 11:05 19.22258 -39.34603 40066 ft 429 kts 261°
2026-04-29 11:06 19.21023 -39.40792 40067 ft 429 kts 261°
2026-04-29 11:06 19.19789 -39.46955 40067 ft 430 kts 261°
2026-04-29 11:07 19.18544 -39.53158 40063 ft 430 kts 261°
2026-04-29 11:07 19.17298 -39.59362 40065 ft 430 kts 260°
2026-04-29 11:08 19.16056 -39.65534 40065 ft 430 kts 260°
2026-04-29 11:08 19.14802 -39.71753 40067 ft 430 kts 260°
2026-04-29 11:09 19.13550 -39.77949 40064 ft 430 kts 260°
2026-04-29 11:09 19.12302 -39.84121 40067 ft 431 kts 260°
2026-04-29 11:10 19.11043 -39.90332 40065 ft 431 kts 260°
2026-04-29 11:10 19.09779 -39.96553 40073 ft 431 kts 260°
2026-04-29 11:11 19.08521 -40.02734 40072 ft 431 kts 260°
2026-04-29 11:11 19.07256 -40.08945 40068 ft 431 kts 260°
2026-04-29 11:12 19.05987 -40.15160 40067 ft 431 kts 260°
2026-04-29 11:12 19.04715 -40.21375 40059 ft 431 kts 260°
2026-04-29 11:13 19.03450 -40.27548 40062 ft 431 kts 260°
2026-04-29 11:13 19.02172 -40.33773 40069 ft 431 kts 260°
2026-04-29 11:14 19.00900 -40.39958 40055 ft 431 kts 260°
2026-04-29 11:14 18.99625 -40.46146 40067 ft 431 kts 260°
2026-04-29 11:15 18.98344 -40.52356 40062 ft 431 kts 259°
2026-04-29 11:15 18.97066 -40.58539 40061 ft 432 kts 259°
2026-04-29 11:16 18.95779 -40.64750 40065 ft 432 kts 259°
2026-04-29 11:16 18.94490 -40.70965 40055 ft 431 kts 259°
2026-04-29 11:17 18.93199 -40.77177 40058 ft 431 kts 259°
2026-04-29 11:17 18.91915 -40.83345 40057 ft 432 kts 259°
2026-04-29 11:18 18.90618 -40.89559 40062 ft 432 kts 259°
2026-04-29 11:18 18.89328 -40.95736 40064 ft 432 kts 259°
2026-04-29 11:19 18.88024 -41.01966 40063 ft 432 kts 259°
2026-04-29 11:19 18.86723 -41.08169 40067 ft 431 kts 259°
2026-04-29 11:20 18.85430 -41.14324 40067 ft 430 kts 259°
2026-04-29 11:20 18.84129 -41.20510 40059 ft 429 kts 259°
2026-04-29 11:21 18.82830 -41.26671 40056 ft 429 kts 259°
2026-04-29 11:21 18.81535 -41.32809 40058 ft 429 kts 259°
2026-04-29 11:22 18.80238 -41.38942 40051 ft 429 kts 259°
2026-04-29 11:22 18.78931 -41.45114 40058 ft 429 kts 259°
2026-04-29 11:23 18.77841 -41.50250 40061 ft 429 kts 259°
2026-04-29 11:23 18.76537 -41.56386 40046 ft 429 kts 259°
2026-04-29 11:24 18.75221 -41.62575 40059 ft 431 kts 259°
2026-04-29 11:24 18.73900 -41.68767 40056 ft 431 kts 259°
2026-04-29 11:25 18.72586 -41.74918 40059 ft 431 kts 259°
2026-04-29 11:25 18.71268 -41.81080 40059 ft 431 kts 259°
2026-04-29 11:26 18.69277 -41.90370 40058 ft 431 kts 259°
2026-04-29 11:26 18.67956 -41.96516 40055 ft 431 kts 259°
2026-04-29 11:27 18.66624 -42.02707 40059 ft 432 kts 259°
2026-04-29 11:27 18.65286 -42.08913 40061 ft 432 kts 259°
2026-04-29 11:28 18.63957 -42.15070 40058 ft 432 kts 259°
2026-04-29 11:28 18.62617 -42.21265 40051 ft 432 kts 259°
2026-04-29 11:29 18.61284 -42.27416 40057 ft 432 kts 259°
2026-04-29 11:29 18.59938 -42.33619 40053 ft 432 kts 259°
2026-04-29 11:30 18.58587 -42.39839 40060 ft 432 kts 259°
2026-04-29 11:30 18.57243 -42.46032 40052 ft 432 kts 259°
2026-04-29 11:31 18.55895 -42.52217 40057 ft 432 kts 259°
2026-04-29 11:31 18.54549 -42.58382 40055 ft 432 kts 259°
2026-04-29 11:32 18.53193 -42.64583 40058 ft 433 kts 259°
2026-04-29 11:32 18.51841 -42.70751 40055 ft 433 kts 259°
2026-04-29 11:33 18.50481 -42.76944 40056 ft 433 kts 259°
2026-04-29 11:33 18.49119 -42.83139 40056 ft 433 kts 259°
2026-04-29 11:34 18.47754 -42.89341 40053 ft 433 kts 259°
2026-04-29 11:34 18.46395 -42.95497 40052 ft 433 kts 258°
2026-04-29 11:35 18.45024 -43.01700 40051 ft 433 kts 258°
2026-04-29 11:35 18.43650 -43.07911 40053 ft 434 kts 258°
2026-04-29 11:36 18.42284 -43.14074 40053 ft 434 kts 258°
2026-04-29 11:36 18.40904 -43.20286 40053 ft 434 kts 258°
2026-04-29 11:37 18.39523 -43.26494 40054 ft 434 kts 258°
2026-04-29 11:37 18.38148 -43.32667 40053 ft 434 kts 258°
2026-04-29 11:38 18.36766 -43.38862 40052 ft 434 kts 258°
2026-04-29 11:38 18.35388 -43.45034 40052 ft 434 kts 258°
2026-04-29 11:39 18.33993 -43.51264 40054 ft 434 kts 258°
2026-04-29 11:39 18.32608 -43.57439 40053 ft 434 kts 258°
2026-04-29 11:40 18.31221 -43.63616 40049 ft 435 kts 258°
2026-04-29 11:40 18.29821 -43.69845 40049 ft 436 kts 258°
2026-04-29 11:41 18.28417 -43.76075 40050 ft 436 kts 258°
2026-04-29 11:41 18.27021 -43.82257 40051 ft 436 kts 258°
2026-04-29 11:42 18.25613 -43.88495 40053 ft 437 kts 258°
2026-04-29 11:42 18.24200 -43.94731 40053 ft 437 kts 258°
2026-04-29 11:43 18.22794 -44.00932 40053 ft 437 kts 258°
2026-04-29 11:43 18.21373 -44.07189 40052 ft 437 kts 258°
2026-04-29 11:44 18.19959 -44.13406 40050 ft 437 kts 258°
2026-04-29 11:44 18.18535 -44.19655 40051 ft 437 kts 258°
2026-04-29 11:45 18.17118 -44.25867 40050 ft 438 kts 257°
2026-04-29 11:45 18.15688 -44.32125 40049 ft 438 kts 257°
2026-04-29 11:46 18.14266 -44.38337 40053 ft 438 kts 257°
2026-04-29 11:46 18.12829 -44.44605 40053 ft 438 kts 257°
2026-04-29 11:47 18.11394 -44.50852 40048 ft 438 kts 257°
2026-04-29 11:47 18.09966 -44.57058 40053 ft 438 kts 257°
2026-04-29 11:48 18.08528 -44.63303 40050 ft 439 kts 257°
2026-04-29 11:48 18.07082 -44.69567 40052 ft 439 kts 257°
2026-04-29 11:49 18.05643 -44.75787 40054 ft 439 kts 257°
2026-04-29 11:49 18.04191 -44.82050 40049 ft 439 kts 257°
2026-04-29 11:50 18.02745 -44.88281 40050 ft 440 kts 257°
2026-04-29 11:50 18.01348 -44.94551 40048 ft 440 kts 259°
2026-04-29 11:51 18.00437 -45.00942 40055 ft 440 kts 264°
2026-04-29 11:51 18.00110 -45.07354 40054 ft 440 kts 269°
2026-04-29 11:52 18.00137 -45.13805 40046 ft 440 kts 270°
2026-04-29 11:52 18.00175 -45.20216 40052 ft 440 kts 270°
2026-04-29 11:53 18.00215 -45.26649 40046 ft 439 kts 270°
2026-04-29 11:53 18.00254 -45.33083 40053 ft 439 kts 270°
2026-04-29 11:54 18.00291 -45.39470 40052 ft 439 kts 269°
2026-04-29 11:54 18.00327 -45.45897 40053 ft 438 kts 269°
2026-04-29 11:55 18.00360 -45.52325 40044 ft 438 kts 269°
2026-04-29 11:55 18.00391 -45.58704 40055 ft 438 kts 269°
2026-04-29 11:56 18.00421 -45.65122 40047 ft 438 kts 269°
2026-04-29 11:56 18.00447 -45.71540 40052 ft 438 kts 269°
2026-04-29 11:57 18.00472 -45.77911 40049 ft 437 kts 269°
2026-04-29 11:57 18.00495 -45.84329 40040 ft 439 kts 269°
2026-04-29 11:58 18.00515 -45.90775 40050 ft 440 kts 269°
2026-04-29 11:58 18.00533 -45.97199 40055 ft 440 kts 269°
2026-04-29 11:59 18.00551 -46.03643 40050 ft 439 kts 269°
2026-04-29 11:59 18.00565 -46.10070 40051 ft 439 kts 269°
2026-04-29 12:00 18.00577 -46.16502 40046 ft 439 kts 269°
2026-04-29 12:00 18.00588 -46.22885 40052 ft 439 kts 269°
2026-04-29 12:01 18.00595 -46.29327 40046 ft 439 kts 269°
2026-04-29 12:01 18.00601 -46.35754 40047 ft 439 kts 269°
2026-04-29 12:02 18.00605 -46.42142 40051 ft 438 kts 269°
2026-04-29 12:02 18.00607 -46.48568 40048 ft 438 kts 269°
2026-04-29 12:03 18.00606 -46.54969 40045 ft 438 kts 269°
2026-04-29 12:03 18.00604 -46.61394 40049 ft 436 kts 269°
2026-04-29 12:04 18.00599 -46.67788 40045 ft 436 kts 269°
2026-04-29 12:04 18.00592 -46.74188 40045 ft 439 kts 269°
2026-04-29 12:05 18.00583 -46.80580 40052 ft 440 kts 269°
2026-04-29 12:05 18.00572 -46.87025 40044 ft 440 kts 269°
2026-04-29 12:06 18.00559 -46.93461 40041 ft 440 kts 269°
2026-04-29 12:06 18.00544 -46.99907 40038 ft 439 kts 268°
2026-04-29 12:07 18.00527 -47.06303 40040 ft 439 kts 268°
2026-04-29 12:07 18.00506 -47.12751 40051 ft 439 kts 268°
2026-04-29 12:08 18.00485 -47.19137 40049 ft 439 kts 268°
2026-04-29 12:08 18.00462 -47.25559 40043 ft 438 kts 268°
2026-04-29 12:09 18.00435 -47.31983 40046 ft 438 kts 268°
2026-04-29 12:09 18.00407 -47.38364 40048 ft 438 kts 268°
2026-04-29 12:10 18.00375 -47.44792 40055 ft 438 kts 268°
2026-04-29 12:10 18.00341 -47.51174 40053 ft 438 kts 268°
2026-04-29 12:11 18.00306 -47.57599 40045 ft 438 kts 268°
2026-04-29 12:11 18.00269 -47.63981 40036 ft 438 kts 268°
2026-04-29 12:12 18.00236 -47.69339 40040 ft 439 kts 268°
2026-04-29 12:12 18.00188 -47.76813 40046 ft 439 kts 268°
2026-04-29 12:13 18.00151 -47.82181 40046 ft 439 kts 268°
2026-04-29 12:13 18.00105 -47.88620 40044 ft 439 kts 268°
2026-04-29 12:14 18.00056 -47.95006 40046 ft 439 kts 268°
2026-04-29 12:14 18.00013 -48.01447 40050 ft 439 kts 268°
2026-04-29 12:15 18.00032 -48.07869 40050 ft 438 kts 269°
2026-04-29 12:15 18.00053 -48.14245 40046 ft 438 kts 269°
2026-04-29 12:16 18.00068 -48.20655 40037 ft 438 kts 269°
2026-04-29 12:16 18.00078 -48.27070 40048 ft 437 kts 269°
2026-04-29 12:17 18.00085 -48.33620 40041 ft 437 kts 269°
2026-04-29 12:17 18.00089 -48.40029 40043 ft 437 kts 269°
2026-04-29 12:18 18.00091 -48.46403 40043 ft 437 kts 269°
2026-04-29 12:18 18.00091 -48.52811 40043 ft 437 kts 269°
2026-04-29 12:19 18.00088 -48.59226 40032 ft 438 kts 269°
2026-04-29 12:19 18.00083 -48.65611 40036 ft 439 kts 269°
2026-04-29 12:20 18.00077 -48.72047 40042 ft 440 kts 269°
2026-04-29 12:20 18.00068 -48.78519 40039 ft 440 kts 269°
2026-04-29 12:21 18.00056 -48.84932 40042 ft 440 kts 268°
2026-04-29 12:21 18.00039 -48.91393 40042 ft 440 kts 268°
2026-04-29 12:22 18.00024 -48.97839 40036 ft 440 kts 268°
2026-04-29 12:22 18.00033 -49.04283 40041 ft 440 kts 269°
2026-04-29 12:23 18.00073 -49.10685 40040 ft 440 kts 269°
2026-04-29 12:23 18.00107 -49.17153 40036 ft 440 kts 269°
2026-04-29 12:24 18.00138 -49.23596 40034 ft 440 kts 269°
2026-04-29 12:24 18.00167 -49.30003 40033 ft 440 kts 269°
2026-04-29 12:25 18.00191 -49.36453 40043 ft 440 kts 269°
2026-04-29 12:26 18.00221 -49.46120 40041 ft 440 kts 269°
2026-04-29 12:26 18.00238 -49.52562 40042 ft 440 kts 269°
2026-04-29 12:27 18.00252 -49.58966 40042 ft 440 kts 269°
2026-04-29 12:27 18.00264 -49.65437 40034 ft 442 kts 269°
2026-04-29 12:28 18.00275 -49.71875 40042 ft 442 kts 269°
2026-04-29 12:28 18.00283 -49.78354 40039 ft 442 kts 269°
2026-04-29 12:29 18.00290 -49.84845 40041 ft 442 kts 269°
2026-04-29 12:29 18.00294 -49.91296 40042 ft 442 kts 269°
2026-04-29 12:30 18.00295 -49.97787 40037 ft 442 kts 269°
2026-04-29 12:30 18.00295 -50.04250 40041 ft 442 kts 269°
2026-04-29 12:31 18.00292 -50.10730 40043 ft 442 kts 269°
2026-04-29 12:31 18.00287 -50.17211 40037 ft 442 kts 269°
2026-04-29 12:32 18.00280 -50.23689 40039 ft 442 kts 269°
2026-04-29 12:32 18.00271 -50.30175 40034 ft 442 kts 269°
2026-04-29 12:33 18.00260 -50.36624 40039 ft 442 kts 269°
2026-04-29 12:33 18.00246 -50.43120 40042 ft 442 kts 269°
2026-04-29 12:34 18.00230 -50.49558 40039 ft 442 kts 269°
2026-04-29 12:34 18.00212 -50.56031 40033 ft 442 kts 269°
2026-04-29 12:35 18.00192 -50.62514 40040 ft 442 kts 269°
2026-04-29 12:35 18.00169 -50.68955 40021 ft 442 kts 269°
2026-04-29 12:36 18.00144 -50.75408 40033 ft 443 kts 269°
2026-04-29 12:36 18.00116 -50.81902 40039 ft 443 kts 269°
2026-04-29 12:37 18.00085 -50.88386 40050 ft 443 kts 269°
2026-04-29 12:37 18.00050 -50.94885 40041 ft 443 kts 269°
2026-04-29 12:38 18.00022 -51.01336 40030 ft 443 kts 269°
2026-04-29 12:38 18.00043 -51.07824 40038 ft 443 kts 269°
2026-04-29 12:39 18.00065 -51.14268 40032 ft 442 kts 269°
2026-04-29 12:39 18.00079 -51.20749 40040 ft 442 kts 269°
2026-04-29 12:40 18.00088 -51.27240 40037 ft 442 kts 269°
2026-04-29 12:40 18.00095 -51.33686 40039 ft 442 kts 269°
2026-04-29 12:41 18.00098 -51.40177 40032 ft 442 kts 269°
2026-04-29 12:41 18.00100 -51.46659 40032 ft 442 kts 269°
2026-04-29 12:42 18.00100 -51.53106 40033 ft 442 kts 269°
2026-04-29 12:42 18.00096 -51.59586 40036 ft 442 kts 269°
2026-04-29 12:43 18.00091 -51.66030 40035 ft 442 kts 269°
2026-04-29 12:43 18.00082 -51.72509 40031 ft 442 kts 269°
2026-04-29 12:44 18.00070 -51.78945 40029 ft 442 kts 269°
2026-04-29 12:44 18.00056 -51.85421 40028 ft 442 kts 269°
2026-04-29 12:45 17.99894 -51.91903 40022 ft 442 kts 265°
2026-04-29 12:45 17.98960 -51.98250 40028 ft 442 kts 257°
2026-04-29 12:46 17.97183 -52.04451 40032 ft 442 kts 250°
2026-04-29 12:46 17.94613 -52.10313 40029 ft 443 kts 243°
2026-04-29 12:47 17.91659 -52.16013 40033 ft 444 kts 243°
2026-04-29 12:47 17.88675 -52.21721 40034 ft 444 kts 243°
2026-04-29 12:48 17.85704 -52.27393 40024 ft 444 kts 243°
2026-04-29 12:48 17.82726 -52.33072 40018 ft 444 kts 243°
2026-04-29 12:49 17.79753 -52.38738 40026 ft 445 kts 243°
2026-04-29 12:49 17.76760 -52.44434 40028 ft 445 kts 243°
2026-04-29 12:50 17.73765 -52.50130 40038 ft 445 kts 243°
2026-04-29 12:50 17.70760 -52.55836 40027 ft 444 kts 243°
2026-04-29 12:51 17.67785 -52.61485 40028 ft 444 kts 243°
2026-04-29 12:51 17.64788 -52.67170 40031 ft 444 kts 243°
2026-04-29 12:52 17.61801 -52.72836 40030 ft 446 kts 243°
2026-04-29 12:52 17.58787 -52.78538 40024 ft 446 kts 243°
2026-04-29 12:53 17.55779 -52.84227 40030 ft 445 kts 243°
2026-04-29 12:53 17.52788 -52.89883 40028 ft 445 kts 243°
2026-04-29 12:54 17.49771 -52.95581 40027 ft 445 kts 243°
2026-04-29 12:54 17.46774 -53.01235 40035 ft 445 kts 243°
2026-04-29 12:55 17.43760 -53.06915 40022 ft 445 kts 243°
2026-04-29 12:55 17.40746 -53.12595 40022 ft 445 kts 243°
2026-04-29 12:56 17.37732 -53.18267 40021 ft 445 kts 243°
2026-04-29 12:56 17.34733 -53.23908 40022 ft 445 kts 243°
2026-04-29 12:57 17.31714 -53.29576 40032 ft 445 kts 243°
2026-04-29 12:57 17.28695 -53.35244 40033 ft 445 kts 243°
2026-04-29 12:58 17.25692 -53.40878 40020 ft 445 kts 243°
2026-04-29 12:58 17.22658 -53.46566 40024 ft 446 kts 243°
2026-04-29 12:59 17.19624 -53.52246 40026 ft 446 kts 243°
2026-04-29 12:59 17.16589 -53.57925 40023 ft 446 kts 243°
2026-04-29 13:00 17.13566 -53.63574 40024 ft 446 kts 243°
2026-04-29 13:00 17.10523 -53.69257 40026 ft 446 kts 243°
2026-04-29 13:01 17.07502 -53.74893 40028 ft 446 kts 243°
2026-04-29 13:01 17.04455 -53.80573 40002 ft 446 kts 243°
2026-04-29 13:02 17.01917 -53.85305 40019 ft 448 kts 243°
2026-04-29 13:02 16.98361 -53.91924 40020 ft 448 kts 243°
2026-04-29 13:03 16.95818 -53.96655 40019 ft 448 kts 243°
2026-04-29 13:03 16.92756 -54.02342 40022 ft 448 kts 243°
2026-04-29 13:04 16.89698 -54.08021 40019 ft 448 kts 243°
2026-04-29 13:04 16.86648 -54.13680 40020 ft 448 kts 243°
2026-04-29 13:05 16.83599 -54.19332 40011 ft 448 kts 243°
2026-04-29 13:05 16.80527 -54.25023 40019 ft 449 kts 243°
2026-04-29 13:06 16.77454 -54.30708 40024 ft 449 kts 243°
2026-04-29 13:06 16.74374 -54.36405 40019 ft 449 kts 243°
2026-04-29 13:07 16.71312 -54.42065 40018 ft 449 kts 243°
2026-04-29 13:07 16.68227 -54.47761 40017 ft 449 kts 243°
2026-04-29 13:08 16.65161 -54.53408 40019 ft 449 kts 243°
2026-04-29 13:08 16.62071 -54.59107 40013 ft 449 kts 243°
2026-04-29 13:09 16.58995 -54.64775 40011 ft 450 kts 243°
2026-04-29 13:09 16.55893 -54.70481 40012 ft 451 kts 243°
2026-04-29 13:10 16.52813 -54.76144 40017 ft 450 kts 243°
2026-04-29 13:10 16.49718 -54.81827 40018 ft 450 kts 243°
2026-04-29 13:11 16.46621 -54.87512 40015 ft 449 kts 243°
2026-04-29 13:11 16.43547 -54.93152 40015 ft 449 kts 243°
2026-04-29 13:12 16.40444 -54.98840 40017 ft 451 kts 243°
2026-04-29 13:12 16.37345 -55.04513 40017 ft 450 kts 243°
2026-04-29 13:13 16.34234 -55.10205 40017 ft 450 kts 243°
2026-04-29 13:13 16.31143 -55.15856 40017 ft 450 kts 243°
2026-04-29 13:14 16.28036 -55.21533 40016 ft 450 kts 243°
2026-04-29 13:14 16.24923 -55.27213 40017 ft 450 kts 243°
2026-04-29 13:15 16.21815 -55.32879 40016 ft 449 kts 243°
2026-04-29 13:15 16.18725 -55.38514 40009 ft 451 kts 243°
2026-04-29 13:16 16.15602 -55.44200 40019 ft 451 kts 243°
2026-04-29 13:16 16.12501 -55.49843 40015 ft 451 kts 243°
2026-04-29 13:17 16.09371 -55.55529 40015 ft 451 kts 243°
2026-04-29 13:17 16.06247 -55.61205 40010 ft 451 kts 243°
2026-04-29 13:18 16.03141 -55.66843 40010 ft 451 kts 243°
2026-04-29 13:18 16.00014 -55.72515 40011 ft 451 kts 243°
2026-04-29 13:19 15.96880 -55.78197 40007 ft 452 kts 243°
2026-04-29 13:19 15.93756 -55.83846 40013 ft 452 kts 243°
2026-04-29 13:20 15.90617 -55.89529 40010 ft 452 kts 243°
2026-04-29 13:20 15.87478 -55.95205 40011 ft 452 kts 243°
2026-04-29 13:21 15.84339 -56.00875 40016 ft 452 kts 243°
2026-04-29 13:21 15.81219 -56.06508 40011 ft 452 kts 243°
2026-04-29 13:22 15.78070 -56.12188 40007 ft 452 kts 243°
2026-04-29 13:22 15.74943 -56.17828 40003 ft 453 kts 243°
2026-04-29 13:23 15.71784 -56.23516 40010 ft 454 kts 243°
2026-04-29 13:23 15.68611 -56.29225 40010 ft 454 kts 243°
2026-04-29 13:24 15.65468 -56.34870 40008 ft 453 kts 243°
2026-04-29 13:24 15.62308 -56.40550 40007 ft 453 kts 243°
2026-04-29 13:25 15.59145 -56.46228 40010 ft 453 kts 243°
2026-04-29 13:25 15.54424 -56.54698 40008 ft 453 kts 243°
2026-04-29 13:26 15.51251 -56.60381 40005 ft 454 kts 244°
2026-04-29 13:26 15.48079 -56.66061 40006 ft 454 kts 244°
2026-04-29 13:27 15.44924 -56.71707 40007 ft 454 kts 244°
2026-04-29 13:27 15.41747 -56.77388 40007 ft 454 kts 244°
2026-04-29 13:28 15.38592 -56.83023 40007 ft 454 kts 243°
2026-04-29 13:28 15.35418 -56.88687 40008 ft 453 kts 244°
2026-04-29 13:29 15.32248 -56.94340 40008 ft 452 kts 244°
2026-04-29 13:29 15.29095 -56.99961 40008 ft 452 kts 244°
2026-04-29 13:30 15.25917 -57.05619 40007 ft 452 kts 244°
2026-04-29 13:30 15.22742 -57.11267 40011 ft 452 kts 244°
2026-04-29 13:31 15.19573 -57.16898 40009 ft 451 kts 244°
2026-04-29 13:31 15.16420 -57.22496 40009 ft 451 kts 244°
2026-04-29 13:32 15.13251 -57.28118 40005 ft 451 kts 244°
2026-04-29 13:32 15.10037 -57.33724 40005 ft 452 kts 242°
2026-04-29 13:33 15.06412 -57.39037 40006 ft 456 kts 236°
2026-04-29 13:33 15.02234 -57.44019 40006 ft 459 kts 231°
2026-04-29 13:34 14.97778 -57.48778 40003 ft 460 kts 230°
2026-04-29 13:34 14.93306 -57.53534 40004 ft 460 kts 230°
2026-04-29 13:35 14.88835 -57.58283 40005 ft 460 kts 230°
2026-04-29 13:35 14.84391 -57.62999 40004 ft 460 kts 230°
2026-04-29 13:36 14.79905 -57.67755 40000 ft 460 kts 230°
2026-04-29 13:36 14.75430 -57.72500 40000 ft 460 kts 230°
2026-04-29 13:37 14.70975 -57.77219 40002 ft 460 kts 230°
2026-04-29 13:37 14.66495 -57.81963 40001 ft 460 kts 230°
2026-04-29 13:38 14.62034 -57.86682 40001 ft 460 kts 230°
2026-04-29 13:38 14.57548 -57.91426 40004 ft 460 kts 230°
2026-04-29 13:39 14.53089 -57.96137 39999 ft 460 kts 230°
2026-04-29 13:39 14.48595 -58.00883 40001 ft 460 kts 230°
2026-04-29 13:40 14.44103 -58.05623 39996 ft 460 kts 230°
2026-04-29 13:40 14.39640 -58.10330 39996 ft 460 kts 230°
2026-04-29 13:41 14.35153 -58.15059 39995 ft 460 kts 230°
2026-04-29 13:41 14.30692 -58.19762 39997 ft 460 kts 230°
2026-04-29 13:42 14.26201 -58.24493 39994 ft 460 kts 231°
2026-04-29 13:42 14.21736 -58.29193 39995 ft 460 kts 231°
2026-04-29 13:43 14.17246 -58.33915 39995 ft 461 kts 230°
2026-04-29 13:43 14.12752 -58.38639 39996 ft 461 kts 230°
2026-04-29 13:44 14.08258 -58.43358 39991 ft 460 kts 230°
2026-04-29 13:44 14.06023 -58.45701 39518 ft 453 kts 230°
2026-04-29 13:44 14.03806 -58.48025 38330 ft 453 kts 230°
2026-04-29 13:45 14.01591 -58.50357 36835 ft 457 kts 230°
2026-04-29 13:45 13.99388 -58.52685 35333 ft 462 kts 229°
2026-04-29 13:45 13.97122 -58.55075 33753 ft 468 kts 227°
2026-04-29 13:45 13.94820 -58.57494 31947 ft 473 kts 227°
2026-04-29 13:46 13.92493 -58.59930 30124 ft 479 kts 227°
2026-04-29 13:46 13.90161 -58.62371 28028 ft 484 kts 226°
2026-04-29 13:46 13.87806 -58.64834 26715 ft 474 kts 226°
2026-04-29 13:46 13.85529 -58.67211 25905 ft 453 kts 225°
2026-04-29 13:47 13.83376 -58.69459 24763 ft 441 kts 225°
2026-04-29 13:47 13.81216 -58.71718 23564 ft 442 kts 224°
2026-04-29 13:47 13.79054 -58.73977 22991 ft 443 kts 224°
2026-04-29 13:47 13.76876 -58.76245 22597 ft 444 kts 223°
2026-04-29 13:48 13.74728 -58.78485 22112 ft 441 kts 224°
2026-04-29 13:48 13.72582 -58.80728 21598 ft 437 kts 223°
2026-04-29 13:48 13.70443 -58.82955 21106 ft 435 kts 223°
2026-04-29 13:48 13.68323 -58.85170 20580 ft 433 kts 223°
2026-04-29 13:49 13.66216 -58.87368 20013 ft 428 kts 224°
2026-04-29 13:49 13.64129 -58.89549 19460 ft 425 kts 223°
2026-04-29 13:49 13.62761 -58.90980 19101 ft 422 kts 223°
2026-04-29 13:49 13.60704 -58.93123 18566 ft 419 kts 223°
2026-04-29 13:50 13.58661 -58.95253 17979 ft 416 kts 223°
2026-04-29 13:50 13.56626 -58.97374 17389 ft 413 kts 223°
2026-04-29 13:50 13.54633 -58.99447 16829 ft 410 kts 223°
2026-04-29 13:50 13.52632 -59.01538 16267 ft 408 kts 223°
2026-04-29 13:51 13.50626 -59.03626 15716 ft 406 kts 224°
2026-04-29 13:51 13.48646 -59.05688 15189 ft 404 kts 224°
2026-04-29 13:51 13.46694 -59.07724 14638 ft 403 kts 223°
2026-04-29 13:51 13.44720 -59.09777 14110 ft 402 kts 224°
2026-04-29 13:52 13.42753 -59.11825 13551 ft 401 kts 224°
2026-04-29 13:52 13.40815 -59.13844 12976 ft 399 kts 224°
2026-04-29 13:52 13.38868 -59.15868 12459 ft 395 kts 224°
2026-04-29 13:52 13.36920 -59.17898 11934 ft 392 kts 224°
2026-04-29 13:53 13.35008 -59.19888 11429 ft 389 kts 224°
2026-04-29 13:53 13.33118 -59.21848 11059 ft 382 kts 224°
2026-04-29 13:53 13.31305 -59.23737 10851 ft 369 kts 224°
2026-04-29 13:53 13.29505 -59.25606 10632 ft 357 kts 224°
2026-04-29 13:54 13.27788 -59.27389 10460 ft 345 kts 224°
2026-04-29 13:54 13.26154 -59.29090 10304 ft 333 kts 223°
2026-04-29 13:54 13.24830 -59.30468 10194 ft 323 kts 223°
2026-04-29 13:54 13.23182 -59.32172 10069 ft 311 kts 224°
2026-04-29 13:55 13.21689 -59.33721 9972 ft 300 kts 223°
2026-04-29 13:55 13.20213 -59.35254 9656 ft 300 kts 223°
2026-04-29 13:55 13.18743 -59.36779 9286 ft 300 kts 224°
2026-04-29 13:55 13.17270 -59.38305 8945 ft 298 kts 223°
2026-04-29 13:56 13.15831 -59.39796 8628 ft 296 kts 223°
2026-04-29 13:56 13.14366 -59.41318 8288 ft 295 kts 222°
2026-04-29 13:56 13.12921 -59.42813 7955 ft 293 kts 223°
2026-04-29 13:56 13.11482 -59.44302 7625 ft 291 kts 223°
2026-04-29 13:57 13.10061 -59.45777 7321 ft 287 kts 222°
2026-04-29 13:57 13.08697 -59.47232 6998 ft 286 kts 227°
2026-04-29 13:57 13.07857 -59.49087 6640 ft 292 kts 260°
2026-04-29 13:57 13.08001 -59.51152 6336 ft 290 kts 281°
2026-04-29 13:58 13.08459 -59.53172 6018 ft 290 kts 283°
2026-04-29 13:58 13.08927 -59.55195 5716 ft 289 kts 282°
2026-04-29 13:58 13.09375 -59.57202 5398 ft 286 kts 282°
2026-04-29 13:58 13.09809 -59.59193 5094 ft 282 kts 282°
2026-04-29 13:59 13.10221 -59.61131 4805 ft 279 kts 282°
2026-04-29 13:59 13.10634 -59.63070 4494 ft 274 kts 282°
2026-04-29 13:59 13.11037 -59.64971 4225 ft 272 kts 282°
2026-04-29 13:59 13.11320 -59.66892 3903 ft 270 kts 264°
2026-04-29 14:00 13.10733 -59.68670 3614 ft 260 kts 231°
2026-04-29 14:00 13.09426 -59.69837 3326 ft 248 kts 200°
2026-04-29 14:00 13.07797 -59.70201 3072 ft 235 kts 173°
2026-04-29 14:00 13.06214 -59.69896 3005 ft 219 kts 161°
2026-04-29 14:01 13.04702 -59.69449 2970 ft 202 kts 148°
2026-04-29 14:01 13.03758 -59.68493 2962 ft 184 kts 111°
2026-04-29 14:01 13.03472 -59.67261 3008 ft 173 kts 95°
2026-04-29 14:01 13.03490 -59.66083 3012 ft 158 kts 86°
2026-04-29 14:02 13.03656 -59.64989 2883 ft 155 kts 81°
2026-04-29 14:02 13.03884 -59.63908 2673 ft 153 kts 79°
2026-04-29 14:02 13.04134 -59.62844 2462 ft 152 kts 78°
2026-04-29 14:02 13.04387 -59.61799 2284 ft 152 kts 78°
2026-04-29 14:03 13.04645 -59.60748 2087 ft 151 kts 78°
2026-04-29 14:03 13.04900 -59.59707 1877 ft 150 kts 78°
2026-04-29 14:03 13.05153 -59.58669 1680 ft 146 kts 78°
2026-04-29 14:03 13.05391 -59.57699 1491 ft 134 kts 78°
2026-04-29 14:04 13.05613 -59.56795 1318 ft 131 kts 79°
2026-04-29 14:04 13.05835 -59.55879 1154 ft 130 kts 79°
2026-04-29 14:04 13.06054 -59.54975 1008 ft 130 kts 78°
2026-04-29 14:04 13.06278 -59.54063 818 ft 130 kts 78°
2026-04-29 14:05 13.06489 -59.53154 680 ft 130 kts 77°
2026-04-29 14:05 13.06714 -59.52256 563 ft 130 kts 77°
2026-04-29 14:05 13.06939 -59.51360 352 ft 127 kts 78°
2026-04-29 14:05 13.07149 -59.50481 202 ft 125 kts 76°
2026-04-29 14:06 13.07324 -59.49787 185 ft 70 kts 76°
2026-04-29 14:06 13.07415 -59.49403 183 ft 52 kts 76°
2026-04-29 14:06 13.07487 -59.49113 183 ft 22 kts 76°
2026-04-29 14:06 13.07561 -59.48968 181 ft 25 kts 47°
2026-04-29 14:07 13.07685 -59.48832 187 ft 27 kts 46°
2026-04-29 14:07 13.07785 -59.48688 192 ft 22 kts 70°
2026-04-29 14:07 13.07817 -59.48565 183 ft 16 kts 76°
2026-04-29 14:07 13.07849 -59.48434 186 ft 21 kts 76°
2026-04-29 14:08 13.07879 -59.48309 183 ft 20 kts 76°
2026-04-29 14:08 13.07909 -59.48187 185 ft 10 kts 75°
2026-04-29 14:08 13.07931 -59.48099 184 ft 15 kts 75°
2026-04-29 14:08 13.07947 -59.48028 184 ft 3 kts 75°
2026-04-29 14:09 13.07957 -59.47997 183 ft 6 kts 64°
2026-04-29 14:09 13.08000 -59.47989 190 ft 9 kts 345°
2026-04-29 14:09 13.08062 -59.48004 182 ft 6 kts 346°
2026-04-29 14:09 13.08085 -59.48010 193 ft 1 kts 346°
2026-04-29 14:10 13.08095 -59.48013 188 ft 1 kts 346°
2026-04-29 14:10 13.08100 -59.48014 189 ft 0 kts 346°